User: anonymous   Login
Location: Eppenbrunn
(49.1158°N, 7.5601°E)
Time: 11:10:26
(UTC+00:00)
Language:

STARLINK-1210 - Orbit

View from above orbital plane
View from above orbital plane
View from above satellite
View from above satellite

Ground track
Ground track

The orbit data is extracted from the following two-line orbital elements,

1 45207U 20012AF  20190.91667824 -.00005895  00000-0 -38571-3 0  9994
2 45207  52.9987 318.1929 0001076  90.0224  87.5563 15.05583539 22220
Epoch (UTC): 08 July 2020 22:00:01
Eccentricity: 0.0001076
inclination: 52.9987°
perigee height: 549 km
apogee height: 550 km
right ascension of ascending node: 318.1929°
argument of perigee: 90.0224°
revolutions per day: 15.05583539
mean anomaly at epoch: 87.5563°
orbit number at epoch: 2222

The dashed part of the orbit path shows where the satellite is in the earth's shadow,  

DLR